Regional Weather Roundup
Issued by NWS

Home | Current Version | Previous Version | Text Only | Print | Product List | Glossary Off
Versions: 1 2 3 4 5 6 7 8 9 10 11 12 13 14 15 16 17 18 19 20 21 22 23 24 25 26 27 28 29 30 31 32 33 34 35 36 37 38 39 40 41 42 43 44 45 46 47 48 49 50

000
ASUS45 KABQ 270210
RWRNM
NEW MEXICO REGIONAL WEATHER ROUNDUP
NATIONAL WEATHER SERVICE ALBUQUERQUE NM
800 PM MDT THU APR 26 2018

NOTE: "FAIR" MEANS FEW OR NO CLOUDS BELOW 12,000 FEET AGL WITH NO
       SIGNIFICANT WEATHER OR OBSTRUCTIONS TO VISION.

      THIS PRODUCT IS RELEASED AS TWO VERSIONS.  ONE VERSION NEAR
      THE TOP OF THE HOUR CONTAINING PRELIMINARY DATA FROM ALBUQUERQUE
      AND OTHER STATIONS.  A FINAL VERSION WITH ADDITIONAL DATA IS
      ISSUED ABOUT 10 MINUTES AFTER THE HOUR.

NMZ501-503-504-510>518-270300-
NORTHWEST PLATEAU/NORTHCENTRAL MOUNTAINS

CITY           SKY/WX    TMP DP  RH WIND       PRES   REMARKS
FARMINGTON     FAIR      70   5   8 W10       30.02R
LOS ALAMOS     FAIR      60  20  21 S12         N/A
SANTA FE       FAIR      60  26  27 SE18G28   30.15R
TAOS           FAIR      57  25  29 SE23      30.19R
ANGEL FIRE     FAIR      44  24  44 SE12G17   30.31R

$$
NMZ402-403-502-505>509-270300-
WESTCENTRAL MOUNTAINS/SOUTHWEST MOUNTAINS

CITY           SKY/WX    TMP DP  RH WIND       PRES   REMARKS
GALLUP         FAIR      68  -6   5 NE13      30.12R
GRANTS         FAIR      66   2   8 N8        30.14R
SILVER CITY    FAIR      74  17  11 W8        30.04R

$$
NMZ407-409-411-412-270300-
SOUTHERN DESERTS

CITY           SKY/WX    TMP DP  RH WIND       PRES   REMARKS
DEMING         FAIR      79  23  12 W7        29.97R
LAS CRUCES     FAIR      78  23  13 SE7       30.00R
HOLLOMAN AFB   FAIR      76  22  13 E13       29.99R
ALAMOGORDO     FAIR      75  19  12 E12G22    29.99R
T OR C         FAIR      80  20  10 S7        29.98R

$$
NMZ519>523-270300-
CENTRAL VALLEYS/CENTRAL HIGHLANDS

CITY           SKY/WX    TMP DP  RH WIND       PRES   REMARKS
ALBUQUERQUE    FAIR      68  22  17 E30G43    30.06R
DOUBLE EAGLE   PTCLDY    66  19  16 E23       30.10R
MORIARTY ARPT  FAIR      61  24  24 E15       30.21R
CLINES CORNERS FAIR      54  23  30 E18G29    30.25R
BELEN          FAIR      69  17  13 SE15      30.06R
SOCORRO        FAIR      71  19  13 E18G35    30.04R

$$
NMZ524>526-539-540-270300-
SOUTHCENTRAL MOUNTAINS

CITY           SKY/WX    TMP DP  RH WIND       PRES   REMARKS
RUIDOSO        NOT AVBL

$$
NMZ527>531-270300-
NORTHEAST HIGHLANDS/NORTHEAST PLAINS

CITY           SKY/WX    TMP DP  RH WIND       PRES   REMARKS
LAS VEGAS      FAIR      48  24  39 NE15      30.28R
RATON          FAIR      49  21  33 NE15      30.25R
CLAYTON        FAIR      50  24  36 N13       30.22R

$$
NMZ532>537-270300-
EASTCENTRAL PLAINS

CITY           SKY/WX    TMP DP  RH WIND       PRES   REMARKS
SANTA ROSA     FAIR      60  24  25 NE14      30.18R
TUCUMCARI      FAIR      61  27  27 NE14      30.17R
CANNON AFB     FAIR      60  25  26 NE15G24   30.18R
CLOVIS AIRPORT FAIR      59  28  30 NE20      30.17R

$$
NMZ028-029-538-270300-
SOUTHEAST PLAINS

CITY           SKY/WX    TMP DP  RH WIND       PRES   REMARKS
ROSWELL        FAIR      68  27  21 NE15      30.11R
ARTESIA        FAIR      70  27  19 NE20      30.10R
CARLSBAD       FAIR      72  27  18 NE21G28   30.05R
HOBBS          CLOUDY    68  27  21 NE18G26   30.09R


$$




USA.gov is the U.S. government's official web portal to all federal, state and local government web resources and services.